888  
ASUS45 KBOI 191310  
RWRID  
 
IDAHO REGIONAL WEATHER ROUNDUP  
NATIONAL WEATHER SERVICE BOISE ID  
700 AM MDT TUE MAR 19 2019  
 
NOTE: "FAIR" INDICATES FEW OR NO CLOUDS BELOW 12000 FEET  
WITH NO SIGNIFICANT WEATHER AND/OR S TO VISIBILITY
 
 
IDZ012-014-191400-  
SOUTHWEST IDAHO  
 
 
CITY SKY/WX TMP DP RH WIND PRES REMARKS
 
BOISE CLEAR 37 25 61 SE7 30.24R WCI 32  
CALDWELL NOT AVBL  
MOUNTAIN HOME CLEAR 28 28 100 E3 30.25S  

 
 
IDZ016-017-191400-  
SOUTHCENTRAL IDAHO  
 
 
CITY SKY/WX TMP DP RH WIND PRES REMARKS
 
BURLEY CLEAR 26 21 81 CALM 30.25R  
JEROME NOT AVBL  
TWIN FALLS CLEAR 28 20 71 E9 30.24S WCI 19  

 
 
IDZ019>023-191400-  
SOUTHEAST IDAHO  
 
 
CITY SKY/WX TMP DP RH WIND PRES REMARKS
 
IDAHO FALLS CLEAR 24 18 77 N6 30.28S WCI 17  
POCATELLO CLEAR 24 19 81 CALM 30.27R  
REXBURG CLEAR 24 16 71 N5 30.28S WCI 18  

 
 
IDZ006-010-011-018-031-032-191400-  
CENTRAL IDAHO MOUNTAINS  
 
 
CITY SKY/WX TMP DP RH WIND PRES REMARKS
 
MCCALL CLEAR 15 12 88 CALM 30.24F  
HAILEY CLEAR 25 16 68 NW14 30.29S WCI 13  
STANLEY N/A 4 0 83 CALM 30.33R  
SALMON CLEAR 20 18 92 CALM 30.37R  
CHALLIS CLEAR 24 18 77 CALM 30.33R  

 
 
IDZ002-004-006-007-026-191400-  
NORTHERN IDAHO  
 
 
CITY SKY/WX TMP DP RH WIND PRES REMARKS
 
LEWISTON CLEAR 35 28 75 E3 30.27S  
LOWELL NOT AVBL  
COEUR D'ALENE CLEAR 32 26 78 NE12 30.29R WCI 23  
MULLAN PASS CLEAR 38 12 34 SE8 30.28S WCI 32  

 
 
 
CLICK HERE TO GO TO PREVIOUS BULLETINS.

The Nexlab ID Page Main Text Page